SLM994 SMJP-EHAM

Flight info

Callsign SLM994
Flight time N/A
Altitude 35000
Route TODOL DCT BUXEX DCT VALOV DCT 13N050W DCT QUETN/M082F350 DCT 25N040W/M082F370 30N035W 35N030W 42N020W/M082F390 45N015W DCT TAMEL DCT EVBAK DCT GAPLI/N0463F390 DCT GAJIT DCT ENHAQ M197 REDFA
Aircraft A346/H-SDE2E3FGHIJ3J4J5M1RWXY/LB1D1

Departure

Time 2026-04-23 15:14
Airport Johan Adolf Pengel International Airport (SMJP)

Arrival

Time N/A
Airport Amsterdam Airport Schiphol (EHAM)
Time Latitude Longitude Altitude Speed Heading
2026-04-23 14:42 5.45515 -55.19805 65 ft 0 kts
2026-04-23 15:07 5.45517 -55.19805 65 ft 0 kts
2026-04-23 15:08 5.45525 -55.19803 65 ft 1 kts 25°
2026-04-23 15:08 5.45538 -55.19789 65 ft 3 kts 65°
2026-04-23 15:08 5.45535 -55.19769 65 ft 3 kts 117°
2026-04-23 15:09 5.45471 -55.19746 65 ft 6 kts 208°
2026-04-23 15:09 5.45448 -55.19780 65 ft 7 kts 255°
2026-04-23 15:09 5.45444 -55.19831 65 ft 6 kts 269°
2026-04-23 15:09 5.45443 -55.19888 65 ft 9 kts 269°
2026-04-23 15:10 5.45443 -55.19962 65 ft 11 kts 269°
2026-04-23 15:10 5.45442 -55.20045 66 ft 12 kts 269°
2026-04-23 15:10 5.45441 -55.20128 66 ft 10 kts 268°
2026-04-23 15:10 5.45439 -55.20194 66 ft 8 kts 270°
2026-04-23 15:11 5.45439 -55.20251 66 ft 7 kts 269°
2026-04-23 15:11 5.45437 -55.20288 66 ft 4 kts 261°
2026-04-23 15:11 5.45420 -55.20323 66 ft 6 kts 225°
2026-04-23 15:11 5.45370 -55.20344 67 ft 8 kts 185°
2026-04-23 15:12 5.45318 -55.20338 67 ft 7 kts 169°
2026-04-23 15:12 5.45279 -55.20309 66 ft 6 kts 107°
2026-04-23 15:12 5.45275 -55.20276 66 ft 0 kts 90°
2026-04-23 15:13 5.45275 -55.20270 66 ft 10 kts 90°
2026-04-23 15:13 5.45275 -55.19962 66 ft 76 kts 89°
2026-04-23 15:13 5.45278 -55.19229 65 ft 131 kts 90°
2026-04-23 15:14 5.45283 -55.18145 70 ft 176 kts 90°
2026-04-23 15:14 5.45284 -55.17862 76 ft 183 kts 90°
2026-04-23 15:14 5.45291 -55.16988 261 ft 190 kts 90°
2026-04-23 15:14 5.45304 -55.15666 772 ft 186 kts 89°
2026-04-23 15:15 5.45476 -55.14397 1299 ft 185 kts 70°
2026-04-23 15:15 5.46186 -55.13338 1753 ft 185 kts 42°
2026-04-23 15:15 5.47204 -55.12566 2140 ft 183 kts 33°
2026-04-23 15:15 5.48314 -55.11866 2350 ft 192 kts 32°
2026-04-23 15:16 5.49499 -55.11155 2564 ft 203 kts 31°
2026-04-23 15:16 5.50754 -55.10413 2792 ft 215 kts 31°
2026-04-23 15:16 5.52123 -55.09666 3034 ft 229 kts 28°
2026-04-23 15:16 5.53591 -55.08899 3266 ft 247 kts 28°
2026-04-23 15:17 5.55171 -55.08073 3580 ft 263 kts 28°
2026-04-23 15:17 5.56832 -55.07202 4110 ft 271 kts 28°
2026-04-23 15:17 5.58504 -55.06321 4782 ft 273 kts 29°
2026-04-23 15:17 5.60202 -55.05424 5490 ft 275 kts 29°
2026-04-23 15:18 5.61894 -55.04528 6137 ft 277 kts 29°
2026-04-23 15:18 5.63596 -55.03623 6816 ft 279 kts 30°
2026-04-23 15:18 5.65340 -55.02696 7498 ft 282 kts 30°
2026-04-23 15:18 5.67073 -55.01774 8114 ft 285 kts 30°
2026-04-23 15:19 5.68821 -55.00843 8725 ft 288 kts 30°
2026-04-23 15:19 5.70617 -54.99887 9310 ft 291 kts 30°
2026-04-23 15:19 5.72413 -54.98929 9879 ft 294 kts 30°
2026-04-23 15:19 5.74221 -54.97966 10417 ft 298 kts 30°
2026-04-23 15:20 5.76122 -54.96954 10696 ft 313 kts 30°
2026-04-23 15:20 5.78099 -54.95900 10948 ft 328 kts 29°
2026-04-23 15:20 5.80155 -54.94805 11211 ft 342 kts 29°
2026-04-23 15:20 5.82305 -54.93662 11489 ft 356 kts 29°
2026-04-23 15:21 5.84553 -54.92465 11684 ft 370 kts 29°
2026-04-23 15:21 5.86896 -54.91218 11984 ft 383 kts 29°
2026-04-23 15:21 5.89267 -54.89956 12431 ft 389 kts 29°
2026-04-23 15:21 5.91669 -54.88677 13008 ft 391 kts 29°
2026-04-23 15:22 5.94069 -54.87398 13601 ft 393 kts 28°
2026-04-23 15:22 5.96521 -54.86093 14173 ft 396 kts 29°
2026-04-23 15:22 5.98945 -54.84801 14672 ft 399 kts 29°
2026-04-23 15:22 6.01430 -54.83473 15176 ft 402 kts 28°
2026-04-23 15:23 6.03923 -54.82137 15638 ft 406 kts 30°
2026-04-23 15:23 6.06425 -54.80794 16088 ft 409 kts 29°
2026-04-23 15:23 6.08954 -54.79430 16547 ft 411 kts 30°
2026-04-23 15:23 6.11251 -54.77735 16928 ft 413 kts 46°
2026-04-23 15:24 6.13116 -54.75511 17388 ft 414 kts 52°
2026-04-23 15:24 6.14937 -54.73286 17862 ft 417 kts 51°
2026-04-23 15:24 6.16809 -54.71023 18315 ft 420 kts 51°
2026-04-23 15:24 6.18665 -54.68779 18690 ft 423 kts 51°
2026-04-23 15:25 6.20554 -54.66491 19100 ft 425 kts 51°
2026-04-23 15:25 6.22441 -54.64200 19502 ft 427 kts 51°
2026-04-23 15:25 6.24347 -54.61883 19908 ft 429 kts 51°
2026-04-23 15:25 6.26257 -54.59559 20265 ft 432 kts 52°
2026-04-23 15:26 6.28162 -54.57241 20623 ft 434 kts 52°
2026-04-23 15:26 6.30093 -54.54889 21003 ft 435 kts 52°
2026-04-23 15:26 6.32018 -54.52543 21360 ft 437 kts 52°
2026-04-23 15:26 6.33979 -54.50154 21697 ft 440 kts 52°
2026-04-23 15:27 6.35933 -54.47773 22034 ft 442 kts 52°
2026-04-23 15:27 6.37895 -54.45381 22370 ft 444 kts 52°
2026-04-23 15:27 6.39871 -54.42972 22694 ft 447 kts 52°
2026-04-23 15:27 6.41856 -54.40552 22999 ft 449 kts 52°
2026-04-23 15:28 6.43829 -54.38145 23308 ft 452 kts 52°
2026-04-23 15:28 6.45842 -54.35689 23632 ft 455 kts 52°
2026-04-23 15:28 6.47879 -54.33203 23953 ft 457 kts 52°
2026-04-23 15:28 6.49883 -54.30759 24260 ft 460 kts 52°
2026-04-23 15:29 6.51943 -54.28245 24555 ft 463 kts 52°
2026-04-23 15:29 6.53992 -54.25745 24825 ft 465 kts 52°
2026-04-23 15:29 6.56044 -54.23217 25124 ft 468 kts 54°
2026-04-23 15:29 6.57737 -54.20437 25380 ft 468 kts 66°
2026-04-23 15:30 6.58819 -54.17341 25678 ft 468 kts 77°
2026-04-23 15:30 6.59381 -54.14135 25987 ft 469 kts 86°
2026-04-23 15:30 6.59466 -54.10835 26292 ft 470 kts 91°
2026-04-23 15:30 6.59387 -54.07547 26531 ft 473 kts 92°
2026-04-23 15:31 6.59273 -54.04243 26823 ft 475 kts 93°
2026-04-23 15:31 6.59200 -54.00914 27086 ft 478 kts 91°
2026-04-23 15:31 6.59181 -53.97555 27363 ft 480 kts 91°
2026-04-23 15:31 6.59178 -53.94195 27630 ft 482 kts 91°
2026-04-23 15:32 6.59179 -53.90820 27919 ft 484 kts 91°
2026-04-23 15:32 6.59184 -53.87478 28295 ft 483 kts 91°
2026-04-23 15:32 6.59196 -53.84078 28713 ft 482 kts 91°
2026-04-23 15:32 6.59208 -53.80738 29138 ft 480 kts 91°
2026-04-23 15:33 6.59217 -53.77389 29555 ft 479 kts 91°
2026-04-23 15:33 6.59228 -53.74038 29966 ft 479 kts 91°
2026-04-23 15:33 6.59238 -53.70734 30343 ft 478 kts 91°
2026-04-23 15:33 6.59248 -53.67378 30744 ft 478 kts 91°
2026-04-23 15:34 6.59269 -53.64072 31119 ft 477 kts 90°
2026-04-23 15:34 6.59364 -53.60737 31539 ft 476 kts 89°
2026-04-23 15:34 6.59486 -53.57428 31918 ft 475 kts 89°
2026-04-23 15:34 6.59664 -53.54104 32219 ft 476 kts 84°
2026-04-23 15:35 6.60355 -53.50863 32465 ft 479 kts 72°
2026-04-23 15:35 6.61711 -53.47791 32769 ft 481 kts 61°
2026-04-23 15:35 6.63629 -53.45077 33153 ft 480 kts 52°
2026-04-23 15:35 6.65656 -53.42400 33557 ft 477 kts 57°
2026-04-23 15:36 6.67382 -53.39568 33884 ft 477 kts 61°
2026-04-23 15:36 6.68992 -53.36662 34136 ft 479 kts 62°
2026-04-23 15:36 6.70595 -53.33693 34354 ft 481 kts 63°
2026-04-23 15:36 6.72173 -53.30749 34578 ft 482 kts 63°
2026-04-23 15:37 6.73771 -53.27757 34851 ft 482 kts 63°
2026-04-23 15:37 6.76925 -53.21831 34929 ft 483 kts 63°
2026-04-23 15:38 6.80115 -53.15841 34934 ft 484 kts 63°
2026-04-23 15:38 6.83286 -53.09866 34930 ft 485 kts 63°
2026-04-23 15:39 6.86463 -53.03880 34926 ft 486 kts 61°
2026-04-23 15:39 6.88390 -53.01092 34930 ft 488 kts 50°
2026-04-23 15:39 6.90776 -52.98697 34931 ft 488 kts 40°
2026-04-23 15:40 6.96342 -52.94729 34927 ft 489 kts 34°
2026-04-23 15:40 7.01968 -52.90885 34930 ft 488 kts 34°
2026-04-23 15:41 7.07591 -52.87012 34931 ft 490 kts 34°
2026-04-23 15:41 7.13208 -52.83122 34933 ft 489 kts 35°
2026-04-23 15:42 7.18848 -52.79200 34935 ft 490 kts 35°
2026-04-23 15:42 7.24449 -52.75303 34938 ft 490 kts 35°
2026-04-23 15:43 7.30059 -52.71399 34934 ft 491 kts 35°
2026-04-23 15:43 7.35692 -52.67478 34932 ft 492 kts 36°
2026-04-23 15:44 7.41355 -52.63533 34932 ft 492 kts 35°
2026-04-23 15:44 7.46976 -52.59616 34934 ft 493 kts 36°
2026-04-23 15:45 7.52632 -52.55676 34933 ft 494 kts 36°
2026-04-23 15:45 7.58284 -52.51734 34935 ft 493 kts 35°
2026-04-23 15:46 7.63928 -52.47799 34934 ft 493 kts 35°
2026-04-23 15:46 7.69608 -52.43837 34936 ft 493 kts 35°
2026-04-23 15:47 7.75257 -52.39895 34932 ft 495 kts 35°
2026-04-23 15:47 7.80915 -52.35944 34935 ft 496 kts 35°
2026-04-23 15:48 7.86623 -52.31958 34932 ft 497 kts 35°
2026-04-23 15:48 7.92310 -52.27988 34936 ft 495 kts 36°
2026-04-23 15:49 7.97951 -52.24044 34932 ft 495 kts 35°
2026-04-23 15:49 8.03632 -52.20075 34926 ft 496 kts 35°
2026-04-23 15:50 8.09340 -52.16083 34927 ft 497 kts 35°
2026-04-23 15:50 8.15033 -52.12101 34916 ft 497 kts 35°
2026-04-23 15:51 8.20702 -52.08133 34912 ft 496 kts 35°
2026-04-23 15:51 8.26397 -52.04147 34936 ft 497 kts 35°
2026-04-23 15:52 8.32080 -52.00167 34933 ft 497 kts 35°
2026-04-23 15:52 8.37781 -51.96176 34941 ft 498 kts 35°
2026-04-23 15:53 8.43497 -51.92170 34933 ft 499 kts 35°
2026-04-23 15:53 8.49204 -51.88170 34931 ft 498 kts 35°
2026-04-23 15:54 8.54898 -51.84177 34935 ft 499 kts 35°
2026-04-23 15:54 8.60616 -51.80165 34930 ft 499 kts 35°
2026-04-23 15:55 8.66309 -51.76169 34924 ft 498 kts 35°
2026-04-23 15:55 8.72045 -51.72142 34931 ft 499 kts 35°
2026-04-23 15:56 8.77723 -51.68154 34934 ft 499 kts 35°
2026-04-23 15:56 8.83448 -51.64132 34935 ft 499 kts 35°
2026-04-23 15:57 8.89310 -51.60331 34937 ft 500 kts 30°
2026-04-23 15:57 8.95361 -51.56835 34933 ft 501 kts 30°
2026-04-23 15:58 9.01393 -51.53330 34934 ft 500 kts 30°
2026-04-23 15:58 9.07440 -51.49772 34934 ft 500 kts 30°
2026-04-23 15:59 9.13448 -51.46220 34933 ft 499 kts 30°
2026-04-23 15:59 9.19434 -51.42676 34933 ft 499 kts 30°
2026-04-23 16:00 9.25469 -51.39099 34933 ft 499 kts 30°
2026-04-23 16:00 9.31486 -51.35532 34933 ft 499 kts 30°
2026-04-23 16:01 9.37480 -51.31979 34933 ft 500 kts 30°
2026-04-23 16:01 9.43502 -51.28405 34933 ft 500 kts 31°
2026-04-23 16:02 9.49479 -51.24857 34933 ft 499 kts 30°
2026-04-23 16:02 9.55507 -51.21275 34933 ft 500 kts 30°
2026-04-23 16:03 9.61509 -51.17710 34933 ft 499 kts 30°
2026-04-23 16:03 9.67508 -51.14144 34933 ft 499 kts 30°
2026-04-23 16:04 9.73486 -51.10590 34933 ft 498 kts 30°
2026-04-23 16:04 9.79469 -51.07030 34933 ft 498 kts 30°
2026-04-23 16:05 9.84467 -51.04058 34933 ft 499 kts 30°
2026-04-23 16:05 9.91498 -50.99872 34933 ft 500 kts 30°
2026-04-23 16:06 9.97514 -50.96289 34933 ft 500 kts 30°
2026-04-23 16:06 10.03501 -50.92722 34934 ft 500 kts 30°
2026-04-23 16:07 10.09508 -50.89142 34936 ft 500 kts 30°
2026-04-23 16:07 10.15526 -50.85553 34936 ft 500 kts 30°
2026-04-23 16:08 10.21548 -50.81960 34938 ft 499 kts 30°
2026-04-23 16:08 10.27536 -50.78385 34941 ft 500 kts 30°
2026-04-23 16:09 10.33559 -50.74788 34941 ft 500 kts 30°
2026-04-23 16:09 10.39581 -50.71190 34940 ft 500 kts 30°
2026-04-23 16:10 10.45586 -50.67601 34941 ft 500 kts 30°
2026-04-23 16:10 10.51579 -50.64018 34945 ft 500 kts 30°
2026-04-23 16:11 10.57600 -50.60416 34943 ft 499 kts 30°
2026-04-23 16:11 10.63610 -50.56820 34946 ft 499 kts 30°
2026-04-23 16:12 10.69584 -50.53241 34944 ft 500 kts 30°
2026-04-23 16:12 10.75569 -50.49655 34950 ft 500 kts 30°
2026-04-23 16:13 10.81579 -50.46053 34956 ft 500 kts 30°
2026-04-23 16:13 10.90614 -50.40635 34946 ft 500 kts 30°
2026-04-23 16:14 10.96611 -50.37037 34950 ft 500 kts 30°
2026-04-23 16:14 11.02586 -50.33450 34957 ft 499 kts 30°
2026-04-23 16:15 11.08598 -50.29839 34951 ft 498 kts 30°
2026-04-23 16:15 11.14566 -50.26251 34955 ft 499 kts 30°
2026-04-23 16:16 11.20552 -50.22653 34951 ft 499 kts 30°
2026-04-23 16:16 11.26542 -50.19049 34960 ft 499 kts 30°
2026-04-23 16:17 11.32555 -50.15431 34946 ft 499 kts 30°
2026-04-23 16:17 11.38531 -50.11833 34950 ft 498 kts 30°
2026-04-23 16:18 11.44480 -50.08248 34951 ft 498 kts 30°
2026-04-23 16:18 11.50469 -50.04639 34953 ft 498 kts 30°
2026-04-23 16:19 11.56466 -50.01024 34948 ft 498 kts 30°
2026-04-23 16:19 11.62412 -49.97436 34956 ft 498 kts 30°
2026-04-23 16:20 11.68391 -49.93826 34948 ft 498 kts 30°
2026-04-23 16:20 11.74354 -49.90225 34950 ft 497 kts 30°
2026-04-23 16:21 11.80334 -49.86612 34955 ft 497 kts 30°
2026-04-23 16:21 11.86310 -49.83001 34953 ft 497 kts 30°
2026-04-23 16:22 11.92285 -49.79387 34963 ft 498 kts 30°
2026-04-23 16:22 11.98246 -49.75780 34975 ft 498 kts 30°
2026-04-23 16:23 12.04217 -49.72162 34975 ft 498 kts 30°
2026-04-23 16:23 12.10165 -49.68560 34976 ft 498 kts 30°
2026-04-23 16:24 12.16137 -49.64940 34972 ft 498 kts 30°
2026-04-23 16:24 12.22128 -49.61308 34976 ft 498 kts 30°
2026-04-23 16:25 12.28085 -49.57693 34973 ft 499 kts 30°
2026-04-23 16:25 12.34056 -49.54069 34973 ft 499 kts 30°
2026-04-23 16:26 12.40073 -49.50413 34973 ft 499 kts 30°
2026-04-23 16:26 12.46028 -49.46796 34976 ft 499 kts 30°
2026-04-23 16:27 12.52044 -49.43136 34976 ft 499 kts 29°
2026-04-23 16:27 12.57999 -49.39513 34976 ft 499 kts 29°
2026-04-23 16:28 12.63983 -49.35870 34976 ft 498 kts 29°
2026-04-23 16:28 12.69968 -49.32226 34972 ft 499 kts 30°
2026-04-23 16:29 12.75944 -49.28584 34970 ft 499 kts 30°
2026-04-23 16:29 12.81902 -49.24952 34969 ft 499 kts 30°
2026-04-23 16:30 12.87882 -49.21303 34970 ft 499 kts 30°
2026-04-23 16:30 12.93842 -49.17664 34971 ft 499 kts 29°
2026-04-23 16:31 12.99830 -49.14008 34973 ft 499 kts 29°
2026-04-23 16:31 13.05798 -49.10360 34974 ft 499 kts 29°
2026-04-23 16:32 13.11793 -49.06694 34973 ft 500 kts 29°
2026-04-23 16:32 13.17757 -49.03045 34974 ft 500 kts 29°
2026-04-23 16:33 13.23723 -48.99392 34974 ft 500 kts 29°
2026-04-23 16:33 13.29706 -48.95728 34975 ft 501 kts 29°
2026-04-23 16:34 13.35688 -48.92065 34971 ft 500 kts 29°
2026-04-23 16:34 13.41694 -48.88380 34975 ft 500 kts 29°
2026-04-23 16:35 13.47690 -48.84703 34974 ft 500 kts 29°
2026-04-23 16:35 13.53647 -48.81044 34971 ft 500 kts 29°
2026-04-23 16:36 13.59649 -48.77355 34972 ft 501 kts 29°
2026-04-23 16:36 13.65644 -48.73671 34972 ft 501 kts 28°
2026-04-23 16:37 13.71637 -48.69984 34973 ft 502 kts 28°
2026-04-23 16:37 13.77640 -48.66291 34971 ft 502 kts 28°
2026-04-23 16:38 13.83633 -48.62600 34972 ft 503 kts 28°
2026-04-23 16:38 13.89631 -48.58905 34973 ft 503 kts 28°
2026-04-23 16:39 13.95676 -48.55178 34974 ft 503 kts 28°
2026-04-23 16:39 14.01651 -48.51491 34974 ft 503 kts 28°
2026-04-23 16:40 14.07696 -48.47760 34972 ft 503 kts 28°
2026-04-23 16:40 14.13706 -48.44048 34977 ft 503 kts 28°
2026-04-23 16:41 14.19684 -48.40354 34974 ft 503 kts 28°
2026-04-23 16:41 14.25694 -48.36635 34974 ft 503 kts 28°
2026-04-23 16:42 14.31715 -48.32909 34979 ft 504 kts 28°
2026-04-23 16:42 14.37710 -48.29197 34979 ft 504 kts 28°
2026-04-23 16:43 14.43738 -48.25461 34980 ft 505 kts 28°
2026-04-23 16:43 14.49751 -48.21735 34976 ft 504 kts 28°
2026-04-23 16:44 14.55785 -48.17990 34976 ft 504 kts 28°
2026-04-23 16:44 14.61787 -48.14265 34973 ft 503 kts 28°
2026-04-23 16:45 14.67822 -48.10515 34984 ft 505 kts 28°
2026-04-23 16:45 14.73842 -48.06774 34985 ft 504 kts 28°
2026-04-23 16:46 14.79837 -48.03042 34981 ft 504 kts 28°
2026-04-23 16:46 14.85875 -47.99286 34980 ft 504 kts 28°
2026-04-23 16:47 14.91871 -47.95552 34971 ft 504 kts 28°
2026-04-23 16:47 14.97889 -47.91801 34976 ft 504 kts 28°
2026-04-23 16:48 15.03918 -47.88039 34977 ft 505 kts 28°
2026-04-23 16:48 15.09912 -47.84300 34975 ft 505 kts 28°
2026-04-23 16:49 15.15944 -47.80533 34981 ft 505 kts 28°
2026-04-23 16:49 15.21992 -47.76753 34981 ft 505 kts 27°
2026-04-23 16:50 15.28025 -47.72981 34981 ft 505 kts 27°
2026-04-23 16:50 15.34041 -47.69216 34980 ft 505 kts 27°
2026-04-23 16:51 15.40037 -47.65462 34979 ft 505 kts 27°
2026-04-23 16:51 15.46074 -47.61678 34974 ft 505 kts 27°
2026-04-23 16:52 15.52074 -47.57916 34973 ft 505 kts 27°
2026-04-23 16:52 15.58100 -47.54134 34978 ft 506 kts 27°
2026-04-23 16:53 15.64117 -47.50357 34973 ft 506 kts 27°
2026-04-23 16:53 15.70146 -47.46566 34979 ft 506 kts 27°
2026-04-23 16:54 15.76208 -47.42754 34972 ft 507 kts 27°
2026-04-23 16:54 15.82243 -47.38958 34975 ft 507 kts 27°
2026-04-23 16:55 15.88279 -47.35156 34977 ft 507 kts 27°
2026-04-23 16:55 15.94302 -47.31361 34971 ft 507 kts 27°
2026-04-23 16:56 16.00350 -47.27549 34977 ft 507 kts 27°
2026-04-23 16:56 16.06354 -47.23760 34974 ft 507 kts 27°
2026-04-23 16:57 16.12419 -47.19928 34976 ft 507 kts 27°
2026-04-23 16:57 16.18456 -47.16112 34979 ft 508 kts 27°
2026-04-23 16:58 16.24490 -47.12297 34978 ft 508 kts 27°
2026-04-23 16:58 16.30556 -47.08458 34979 ft 508 kts 27°
2026-04-23 16:59 16.36589 -47.04636 34983 ft 509 kts 27°
2026-04-23 16:59 16.42636 -47.00803 34984 ft 508 kts 27°
2026-04-23 17:00 16.48693 -46.96962 34980 ft 509 kts 27°
2026-04-23 17:00 16.54754 -46.93117 34986 ft 510 kts 27°
2026-04-23 17:01 16.60825 -46.89259 34985 ft 510 kts 27°
2026-04-23 17:01 16.66893 -46.85403 34985 ft 510 kts 27°
2026-04-23 17:02 16.72939 -46.81554 34987 ft 510 kts 27°
2026-04-23 17:02 16.79025 -46.77679 34991 ft 510 kts 27°
2026-04-23 17:03 16.85096 -46.73812 34990 ft 510 kts 27°
2026-04-23 17:03 16.91153 -46.69951 34988 ft 510 kts 27°
2026-04-23 17:04 16.97204 -46.66087 34977 ft 510 kts 27°
2026-04-23 17:04 17.03231 -46.62242 34979 ft 510 kts 27°
2026-04-23 17:05 17.09327 -46.58346 34974 ft 511 kts 27°
2026-04-23 17:05 17.15389 -46.54467 34974 ft 512 kts 27°
2026-04-23 17:06 17.21464 -46.50577 34974 ft 511 kts 27°
2026-04-23 17:06 17.27544 -46.46679 34977 ft 510 kts 26°
2026-04-23 17:07 17.33579 -46.42811 34981 ft 510 kts 26°
2026-04-23 17:07 17.39664 -46.38909 34981 ft 510 kts 26°
2026-04-23 17:08 17.45738 -46.35012 34978 ft 511 kts 26°
2026-04-23 17:08 17.51766 -46.31134 34987 ft 510 kts 26°
2026-04-23 17:09 17.57835 -46.27232 34984 ft 511 kts 26°
2026-04-23 17:09 17.63922 -46.23312 34984 ft 510 kts 26°
2026-04-23 17:10 17.69931 -46.19439 34991 ft 507 kts 26°
2026-04-23 17:10 17.75960 -46.15551 34994 ft 508 kts 25°
2026-04-23 17:11 17.81981 -46.11669 35005 ft 508 kts 26°
2026-04-23 17:11 17.88019 -46.07770 35004 ft 507 kts 26°
2026-04-23 17:12 17.94030 -46.03881 35008 ft 508 kts 26°
2026-04-23 17:12 18.00027 -45.99900 35008 ft 511 kts 29°
2026-04-23 17:13 18.05764 -45.95421 35011 ft 513 kts 32°
2026-04-23 17:13 18.11390 -45.90857 35016 ft 513 kts 32°
2026-04-23 17:14 18.17047 -45.86268 35015 ft 513 kts 32°
2026-04-23 17:14 18.22702 -45.81685 35015 ft 512 kts 32°
2026-04-23 17:15 18.28364 -45.77095 35007 ft 513 kts 32°
2026-04-23 17:15 18.34001 -45.72524 35006 ft 514 kts 32°
2026-04-23 17:16 18.39657 -45.67934 35006 ft 514 kts 31°
2026-04-23 17:16 18.45341 -45.63317 35009 ft 515 kts 31°
2026-04-23 17:17 18.51024 -45.58698 35008 ft 515 kts 32°
2026-04-23 17:17 18.56670 -45.54102 35007 ft 515 kts 31°
2026-04-23 17:18 18.65214 -45.47141 35006 ft 515 kts 32°
2026-04-23 17:19 18.70855 -45.42543 35009 ft 516 kts 32°
2026-04-23 17:19 18.76556 -45.37889 35007 ft 515 kts 32°
2026-04-23 17:20 18.82216 -45.33263 35007 ft 516 kts 32°
2026-04-23 17:21 18.93554 -45.23992 35013 ft 516 kts 32°
2026-04-23 17:21 19.02089 -45.17001 35011 ft 518 kts 31°
2026-04-23 17:22 19.10651 -45.09975 35013 ft 520 kts 32°
2026-04-23 17:23 19.19225 -45.02927 35016 ft 519 kts 32°
2026-04-23 17:24 19.27770 -44.95903 35017 ft 518 kts 32°
2026-04-23 17:24 19.36332 -44.88851 35015 ft 520 kts 31°
2026-04-23 17:25 19.44870 -44.81808 35014 ft 521 kts 31°
2026-04-23 17:26 19.56281 -44.72380 35005 ft 520 kts 31°
2026-04-23 17:27 19.64876 -44.65268 35008 ft 521 kts 31°
2026-04-23 17:27 19.70551 -44.60567 35009 ft 520 kts 31°
2026-04-23 17:28 19.76255 -44.55838 35013 ft 520 kts 31°
2026-04-23 17:28 19.81977 -44.51090 35015 ft 522 kts 31°
2026-04-23 17:29 19.87672 -44.46358 35012 ft 521 kts 31°
2026-04-23 17:30 19.96245 -44.39226 35017 ft 521 kts 31°
2026-04-23 17:30 20.04800 -44.32102 35006 ft 521 kts 31°
2026-04-23 17:31 20.10511 -44.27339 35012 ft 523 kts 31°
2026-04-23 17:31 20.16227 -44.22569 35016 ft 521 kts 31°
2026-04-23 17:32 20.21924 -44.17807 35015 ft 523 kts 31°
2026-04-23 17:32 20.27667 -44.13005 35012 ft 524 kts 31°
2026-04-23 17:33 20.33374 -44.08229 35019 ft 524 kts 31°
2026-04-23 17:33 20.39139 -44.03396 35008 ft 525 kts 31°
2026-04-23 17:34 20.42967 -44.00185 35013 ft 525 kts 31°
2026-04-23 17:35 20.53467 -43.91371 35016 ft 526 kts 31°
2026-04-23 17:35 20.62096 -43.84116 35013 ft 527 kts 31°
2026-04-23 17:36 20.67892 -43.79235 35008 ft 526 kts 31°
2026-04-23 17:36 20.73625 -43.74402 35012 ft 526 kts 31°
2026-04-23 17:37 20.79374 -43.69552 35001 ft 526 kts 31°
2026-04-23 17:38 20.88031 -43.62237 35012 ft 526 kts 31°
2026-04-23 17:38 20.93761 -43.57390 35009 ft 528 kts 30°
2026-04-23 17:39 20.99519 -43.52513 35018 ft 528 kts 31°
2026-04-23 17:39 21.05287 -43.47624 35011 ft 527 kts 30°
2026-04-23 17:40 21.11042 -43.42743 35018 ft 530 kts 30°
2026-04-23 17:40 21.16840 -43.37817 35017 ft 529 kts 30°
2026-04-23 17:41 21.22591 -43.32932 35010 ft 530 kts 31°
2026-04-23 17:41 21.31257 -43.25555 35015 ft 529 kts 31°
2026-04-23 17:42 21.39907 -43.18179 35018 ft 530 kts 31°
2026-04-23 17:43 21.45669 -43.13256 35008 ft 530 kts 30°
2026-04-23 17:43 21.51470 -43.08305 35009 ft 532 kts 31°
2026-04-23 17:44 21.57285 -43.03330 35020 ft 531 kts 31°
2026-04-23 17:44 21.65948 -42.95906 35021 ft 531 kts 31°
2026-04-23 17:45 21.74626 -42.88462 35017 ft 533 kts 30°
2026-04-23 17:46 21.83297 -42.81009 35017 ft 533 kts 30°
2026-04-23 17:46 21.89071 -42.76040 35012 ft 533 kts 30°
2026-04-23 17:47 21.94894 -42.71027 35015 ft 535 kts 30°
2026-04-23 17:48 22.03595 -42.63519 35023 ft 534 kts 30°
2026-04-23 17:48 22.09581 -42.58351 35014 ft 533 kts 30°
2026-04-23 17:49 22.15523 -42.53210 35006 ft 533 kts 30°
2026-04-23 17:49 22.21295 -42.48219 35010 ft 535 kts 30°
2026-04-23 17:50 22.27103 -42.43185 35010 ft 535 kts 30°
2026-04-23 17:50 22.35785 -42.35650 35006 ft 534 kts 30°
2026-04-23 17:51 22.41567 -42.30623 35009 ft 534 kts 30°
2026-04-23 17:52 22.50284 -42.23044 35000 ft 537 kts 30°
2026-04-23 17:52 22.58992 -42.15452 35006 ft 537 kts 30°
2026-04-23 17:53 22.67715 -42.07840 35002 ft 538 kts 30°
2026-04-23 17:54 22.73514 -42.02766 35004 ft 538 kts 30°
2026-04-23 17:54 22.82238 -41.95125 35000 ft 537 kts 30°
2026-04-23 17:55 22.90937 -41.87496 34989 ft 538 kts 29°
2026-04-23 17:56 22.96760 -41.82383 34993 ft 538 kts 30°
2026-04-23 17:56 23.05524 -41.74680 34998 ft 539 kts 30°
2026-04-23 17:57 23.11309 -41.69578 35003 ft 538 kts 29°
2026-04-23 17:58 23.20027 -41.61889 35001 ft 538 kts 30°
2026-04-23 17:58 23.25851 -41.56744 35004 ft 537 kts 29°
2026-04-23 17:59 23.31654 -41.51614 35002 ft 539 kts 29°
2026-04-23 17:59 23.37465 -41.46471 35000 ft 539 kts 30°
2026-04-23 18:00 23.43265 -41.41327 34998 ft 538 kts 29°
2026-04-23 18:00 23.49037 -41.36202 34994 ft 536 kts 29°
2026-04-23 18:01 23.52880 -41.32793 34989 ft 538 kts 30°